Location: Owatonna
(44.0840°N, 93.2260°W)
Time: 10:09:42
(UTC-05:00)

Tiangong 1 - Visible Passes

Search period start: 21 October 2014 00:00
Search period end: 31 October 2014 00:00
Orbit: 353 x 362 km, 42.8° (Epoch: 21 October)

Date Brightness Start Highest point End Pass type
(mag) Time Alt. Az. Time Alt. Az. Time Alt. Az.
22 Oct 3.6 20:17:37 10° SW 20:18:16 14° SSW 20:18:16 14° SSW visible
23 Oct 3.1 19:10:04 10° S 19:11:52 15° SSE 19:13:05 12° ESE visible
23 Oct 4.3 20:44:40 10° WSW 20:44:44 10° WSW 20:44:44 10° WSW visible
24 Oct 2.0 19:36:21 10° SW 19:39:02 31° SSE 19:39:22 30° SE visible
25 Oct 2.1 20:03:18 10° WSW 20:05:28 39° SW 20:05:28 39° SW visible
26 Oct 1.9 18:54:41 10° SW 18:57:28 36° SSE 18:59:48 13° E visible
26 Oct 3.7 20:30:26 10° W 20:31:25 19° W 20:31:25 19° W visible
27 Oct 1.1 19:21:32 10° WSW 19:24:28 60° S 19:25:36 32° ESE visible
28 Oct 1.0 19:48:27 10° W 19:51:18 68° SSW 19:51:18 68° SSW visible
29 Oct 1.1 18:39:19 10° WSW 18:42:16 64° S 18:45:13 10° E visible
29 Oct 3.1 20:15:19 10° W 20:16:53 27° WSW 20:16:53 27° WSW visible
30 Oct 1.1 19:06:03 10° W 19:09:00 67° S 19:10:47 21° ESE visible
30 Oct 4.5 20:42:11 10° W 20:42:23 11° W 20:42:23 11° W visible
